TimeCEST,TemperatureF,Dew PointF,Humidity,Sea Level PressureIn,VisibilityMPH,Wind Direction,Wind SpeedMPH,Gust SpeedMPH,PrecipitationIn,Events,Conditions,WindDirDegrees,DateUTC
12:25 AM,33.8,26.6,75,29.92,-9999.0,NE,15.0,-,N/A,,Clear,50,2013-04-01 22:25:00
12:55 AM,33.8,26.6,75,29.92,-9999.0,NE,12.7,-,N/A,,Clear,50,2013-04-01 22:55:00
1:25 AM,33.8,26.6,75,29.92,-9999.0,NE,12.7,-,N/A,,Clear,50,2013-04-01 23:25:00
1:55 AM,33.8,24.8,70,29.92,-9999.0,ENE,10.4,-,N/A,,Clear,60,2013-04-01 23:55:00
2:00 AM,33,25,63,29.93,22,ENE,11.2,,,,Partly Cloudy,60,2013-04-02 00:00:00
2:25 AM,33.8,24.8,70,29.92,-9999.0,ENE,11.5,-,N/A,,Clear,60,2013-04-02 00:25:00
2:55 AM,33.8,23.0,65,29.92,-9999.0,ENE,11.5,-,N/A,,Clear,60,2013-04-02 00:55:00
3:25 AM,32.0,23.0,69,29.92,-9999.0,NE,10.4,-,N/A,,Clear,50,2013-04-02 01:25:00
3:55 AM,32.0,23.0,69,29.92,-9999.0,NE,10.4,-,N/A,,Clear,40,2013-04-02 01:55:00
4:25 AM,32.0,23.0,69,29.92,-9999.0,NE,11.5,-,N/A,,Clear,50,2013-04-02 02:25:00
4:55 AM,32.0,23.0,69,29.92,-9999.0,NE,11.5,-,N/A,,Clear,50,2013-04-02 02:55:00
5:00 AM,33,23,55,29.92,28,NE,11.2,,,,Scattered Clouds,50,2013-04-02 03:00:00
5:25 AM,32.0,23.0,69,29.92,-9999.0,NE,11.5,-,N/A,,Clear,50,2013-04-02 03:25:00
5:55 AM,32.0,23.0,69,29.92,-9999.0,NE,12.7,-,N/A,,Clear,50,2013-04-02 03:55:00
6:25 AM,32.0,23.0,69,29.92,-9999.0,ENE,11.5,-,N/A,,Clear,60,2013-04-02 04:25:00
6:55 AM,32.0,23.0,69,29.92,-9999.0,ENE,11.5,-,N/A,,Clear,60,2013-04-02 04:55:00
7:25 AM,30.2,21.2,69,29.92,-9999.0,ENE,10.4,-,N/A,,Clear,60,2013-04-02 05:25:00
7:55 AM,32.0,21.2,64,29.92,-9999.0,ENE,12.7,-,N/A,,Clear,70,2013-04-02 05:55:00
8:00 AM,33,22,51,29.95,25,ENE,11.2,,,,Partly Cloudy,60,2013-04-02 06:00:00
8:25 AM,33.8,21.2,60,29.95,-9999.0,ENE,13.8,-,N/A,,Clear,60,2013-04-02 06:25:00
8:55 AM,35.6,23.0,60,29.95,-9999.0,ENE,11.5,-,N/A,,Clear,60,2013-04-02 06:55:00
9:25 AM,37.4,23.0,56,29.95,-9999.0,ENE,11.5,-,N/A,,Clear,60,2013-04-02 07:25:00
9:55 AM,37.4,21.2,52,29.95,-9999.0,ENE,13.8,-,N/A,,Clear,70,2013-04-02 07:55:00
10:25 AM,39.2,19.4,45,29.98,-9999.0,ENE,15.0,-,N/A,,Clear,70,2013-04-02 08:25:00
10:55 AM,39.2,19.4,45,29.98,-9999.0,ENE,16.1,-,N/A,,Clear,60,2013-04-02 08:55:00
11:00 AM,40,20,31,29.98,19,ENE,17.9,,,,Scattered Clouds,60,2013-04-02 09:00:00
11:25 AM,41.0,19.4,42,29.98,-9999.0,ENE,18.4,-,N/A,,Clear,70,2013-04-02 09:25:00
11:55 AM,41.0,21.2,45,29.98,-9999.0,NE,17.3,-,N/A,,Clear,50,2013-04-02 09:55:00
12:25 PM,42.8,21.2,42,29.98,6.2,NE,19.6,-,N/A,,Partly Cloudy,50,2013-04-02 10:25:00
12:55 PM,44.6,21.2,39,29.95,6.2,NE,19.6,-,N/A,,Partly Cloudy,50,2013-04-02 10:55:00
1:25 PM,44.6,19.4,37,29.95,6.2,NE,20.7,32.2,N/A,,Partly Cloudy,40,2013-04-02 11:25:00
1:55 PM,44.6,19.4,37,29.95,6.2,NE,23.0,-,N/A,,Partly Cloudy,50,2013-04-02 11:55:00
2:00 PM,45,19,23,29.96,19,NE,22.4,,,,Partly Cloudy,40,2013-04-02 12:00:00
2:25 PM,46.4,19.4,34,29.95,-9999.0,NE,21.9,-,N/A,,Clear,50,2013-04-02 12:25:00
2:55 PM,46.4,17.6,32,29.95,-9999.0,NE,21.9,-,N/A,,Clear,50,2013-04-02 12:55:00
3:25 PM,46.4,17.6,32,29.95,-9999.0,NE,23.0,-,N/A,,Clear,50,2013-04-02 13:25:00
3:55 PM,46.4,17.6,32,29.95,-9999.0,NE,21.9,-,N/A,,Clear,50,2013-04-02 13:55:00
4:25 PM,46.4,17.6,32,29.95,-9999.0,NE,21.9,-,N/A,,Clear,40,2013-04-02 14:25:00
4:55 PM,46.4,17.6,32,29.95,-9999.0,NE,20.7,-,N/A,,Clear,50,2013-04-02 14:55:00
5:00 PM,47,17,17,29.95,25,NE,22.4,,,,,50,2013-04-02 15:00:00
5:25 PM,46.4,15.8,29,29.92,-9999.0,ENE,19.6,-,N/A,,Clear,60,2013-04-02 15:25:00
5:55 PM,46.4,23.0,40,29.95,-9999.0,NE,17.3,-,N/A,,Clear,40,2013-04-02 15:55:00
6:25 PM,44.6,23.0,43,29.95,-9999.0,NE,17.3,-,N/A,,Clear,40,2013-04-02 16:25:00
6:55 PM,44.6,19.4,37,29.95,-9999.0,NNE,19.6,-,N/A,,Clear,30,2013-04-02 16:55:00
7:25 PM,42.8,19.4,39,29.95,-9999.0,NNE,21.9,-,N/A,,Clear,30,2013-04-02 17:25:00
7:55 PM,42.8,19.4,39,29.95,-9999.0,NE,20.7,32.2,N/A,,Clear,40,2013-04-02 17:55:00
8:00 PM,42,21,29,29.96,28,NNE,17.9,,,,Partly Cloudy,30,2013-04-02 18:00:00
8:25 PM,41.0,21.2,45,29.95,-9999.0,NE,18.4,-,N/A,,Clear,40,2013-04-02 18:25:00
8:55 PM,41.0,24.8,53,29.95,-9999.0,NE,18.4,-,N/A,,Clear,40,2013-04-02 18:55:00
9:25 PM,39.2,24.8,56,29.98,-9999.0,NE,18.4,-,N/A,,Clear,40,2013-04-02 19:25:00
9:55 PM,39.2,24.8,56,29.98,-9999.0,NE,16.1,-,N/A,,Clear,40,2013-04-02 19:55:00
10:25 PM,39.2,26.6,61,29.98,-9999.0,NE,16.1,-,N/A,,Clear,40,2013-04-02 20:25:00
10:55 PM,37.4,26.6,65,30.01,-9999.0,NE,12.7,-,N/A,,Clear,40,2013-04-02 20:55:00
11:00 PM,38,27,54,30.01,25,NE,11.2,,,,Partly Cloudy,40,2013-04-02 21:00:00
11:25 PM,37.4,26.6,65,30.01,-9999.0,NE,12.7,-,N/A,,Clear,50,2013-04-02 21:25:00
11:55 PM,37.4,26.6,65,30.01,-9999.0,NE,12.7,-,N/A,,Clear,50,2013-04-02 21:55:00